Volver al catálogo

STARLINK-1271

ActivoComunicacionesVLEO
NORAD 45217·PAYLOAD·🇺🇸 United States

Lanzado Feb 17, 2020 desde Cape Canaveral Space Force Station

Loading…

Próximos Pases (próximas 24 horas)

TLE

ActualizadoSource: CelesTrak SupGP

Época: Sep 14, 2026, 20:45 UTC

1 45217C 20012AR  26257.86506944  .00071950  00000+0  15766-2 0  2573
2 45217  53.1521 217.7923 0002106  94.2472  55.1437 15.43476487    11

Sigue STARLINK-1271 en tiempo real con AllMySat

Download on the App Store